Regional Weather Roundup
Issued by NWS Jackson, KY

Home | Current Version | Previous Version | Graphics & Text | Print | Product List | Glossary On
Versions: 1 2 3 4 5 6 7 8 9 10 11 12 13 14 15 16 17 18 19 20 21 22 23 24 25 26 27 28 29 30 31 32 33 34 35 36 37 38 39 40 41 42 43 44 45 46 47 48 49 50
000
ASUS43 KJKL 100910
RWRJKL

EAST KENTUCKY HOURLY WEATHER ROUNDUP
NATIONAL WEATHER SERVICE JACKSON KY
400 AM EST WED FEB 10 2016

NOTE: "FAIR" INDICATES FEW OR NO CLOUDS BELOW 12,000 FEET WITH
NO SIGNIFICANT WEATHER AND/OR OBSTRUCTIONS TO VISIBILITY.

* THESE REPORTS ARE NOT UNDER NWS QUALITY CONTROL AND MAY NOT
  REPORT WEATHER SUCH AS PRECIPITATION AND FOG.

KYZ079-080-083-085-087-088-110-112-115-119-120-101000
...EASTERN KENTUCKY...

CITY           SKY/WX    TMP DP  RH WIND       PRES   REMARKS
JACKSON        CLOUDY    17   9  70 W6        29.91S WCI   9
LONDON         LGT SNOW  16  11  80 W7        29.96S WCI   6
SOMERSET*      FLURRIES  18  12  79 W10       30.02S WCI   6
MONTICELLO*    FLURRIES  18  10  71 W15G25    30.03R WCI   4
WILLIAMSBURG*  CLOUDY    18  14  86 CALM      29.99R
MIDDLESBORO*   LGT SNOW  19  12  74 W3        29.98R
HARLAN APT*    CLOUDY    19  14  79 SW10      29.92R WCI   8
BLACK MTN*       N/A      7   7 100 CALM        N/A
BIG SANDY*     FLURRIES  19  12  72 NW9       29.91S WCI   9
MOREHEAD APT*  PTSUNNY   16   9  73 W6        29.96R WCI   7
$$

KYZ035-036-041-042-044-050-067-078-099-101000
...CENTRAL KENTUCKY...

CITY           SKY/WX    TMP DP  RH WIND       PRES   REMARKS
MT STERLING*   FLURRIES  18  14  86 W5        29.96S WCI  11
DANVILLE*      CLOUDY    18  10  73 W6        29.99S WCI   9
RICHMOND*      CLOUDY    16  10  79 W10       29.97R WCI   3
LEXINGTON      LGT SNOW  17  12  80 W9        29.96R WCI   6
FRANKFORT      LGT SNOW  17  11  77 W7        29.97R WCI   8
$$

KYZ091>093-OHZ055-061-077-WVZ005-015-034-035-042-101000
...SOUTHERN OHIO/WEST VIRGINIA...

CITY           SKY/WX    TMP DP  RH WIND       PRES   REMARKS
COVINGTON      FLURRIES  15   9  76 W10       29.93R WCI   2
COLUMBUS       FLURRIES  17   9  70 W15       29.84S WCI   2
DAYTON         LGT SNOW  14  10  84 SW14      29.87R FOG     WCI  -1
WILMINGTON     CLOUDY    13   7  77 W14       29.87S WCI  -2
HUNTINGTON     LGT SNOW  20  12  71 W9        29.91R WCI   9
CHARLESTON     LGT SNOW  22  15  75 W12G23    29.87S WCI  10
PINEVILLE*     LGT SNOW  20  15  79 MISG      29.87S
BECKLEY        FLURRIES  16  10  77 W6        29.75F WCI   7
$$

VAZ002-007-008-TNZ017-027-036-066-071-101000
...SOUTHWEST VIRGINIA/EAST TENNESSEE...

CITY           SKY/WX    TMP DP  RH WIND       PRES   REMARKS
BRISTOL        CLOUDY    20  12  71 W13       29.90R WCI   7
KNOXVILLE      CLOUDY    21  10  62 W13       30.00S WCI   9
OAK RIDGE      CLOUDY    21   9  59 W7        30.02S WCI  12
CROSSVILLE     CLOUDY    15   7  70 W8        29.97R WCI   4
NASHVILLE      CLOUDY    22  15  75 W7        30.10R WCI  13
$$

...KEY TO REMARKS...
VSB - VISIBILITY IN MILES
WCI - WIND CHILL INDEX
HX  - HEAT INDEX

$$



USA.gov is the U.S. government's official web portal to all federal, state and local government web resources and services.